Time,TemperatureF,DewpointF,PressureIn,WindDirection,WindDirectionDegrees,WindSpeedMPH,WindSpeedGustMPH,Humidity,HourlyPrecipIn,Conditions,Clouds,dailyrainin,SoftwareType,DateUTC
2013-05-15 00:00:00,69.1,58.5,29.59,WNW,300,0.0,0.0,69,0.00,,---,0.11,VWS V14.01,2013-05-15 04:00:00,
2013-05-15 00:01:00,69.2,59.0,29.59,WNW,300,0.0,0.0,70,0.00,,---,0.11,VWS V14.01,2013-05-15 04:01:00,
2013-05-15 00:06:00,69.3,59.5,29.59,WNW,300,0.0,1.0,71,0.00,,---,0.11,VWS V14.01,2013-05-15 04:06:00,
2013-05-15 00:11:00,69.0,59.6,29.59,WNW,300,0.0,0.0,72,0.00,,---,0.00,VWS V14.01,2013-05-15 04:11:00,
2013-05-15 00:16:00,69.4,60.4,29.59,WNW,300,0.0,1.0,73,0.00,,---,0.00,VWS V14.01,2013-05-15 04:16:00,
2013-05-15 00:21:00,69.9,60.9,29.59,WNW,300,0.0,0.0,73,0.00,,---,0.00,VWS V14.01,2013-05-15 04:21:00,
2013-05-15 00:26:00,69.8,61.2,29.59,WNW,300,0.0,0.0,74,0.00,,---,0.00,VWS V14.01,2013-05-15 04:26:00,
2013-05-15 00:31:00,69.9,61.2,29.59,WNW,300,0.0,0.0,74,0.00,,---,0.00,VWS V14.01,2013-05-15 04:31:00,
2013-05-15 00:36:00,69.9,61.6,29.58,WNW,300,0.0,1.0,75,0.00,,---,0.00,VWS V14.01,2013-05-15 04:36:00,
2013-05-15 00:41:00,70.6,61.5,29.58,WNW,300,0.0,0.0,73,0.00,,---,0.00,VWS V14.01,2013-05-15 04:41:00,
2013-05-15 00:46:00,70.8,61.3,29.58,WNW,300,0.0,0.0,72,0.00,,---,0.00,VWS V14.01,2013-05-15 04:46:00,
2013-05-15 00:51:00,71.0,61.9,29.56,WNW,300,0.0,0.0,73,0.00,,---,0.00,VWS V14.01,2013-05-15 04:51:00,
2013-05-15 00:56:00,71.2,61.7,29.56,WNW,300,0.0,0.0,72,0.00,,---,0.00,VWS V14.01,2013-05-15 04:56:00,
2013-05-15 01:01:00,71.7,61.8,29.56,WNW,300,0.0,1.0,71,0.00,,---,0.00,VWS V14.01,2013-05-15 05:01:00,
2013-05-15 01:06:00,71.9,62.0,29.55,WNW,300,0.0,0.0,71,0.00,,---,0.00,VWS V14.01,2013-05-15 05:06:00,
2013-05-15 01:11:00,72.0,62.1,29.55,WNW,300,0.0,1.0,71,0.00,,---,0.00,VWS V14.01,2013-05-15 05:11:00,
2013-05-15 01:16:00,72.4,62.1,29.55,WNW,300,0.0,1.0,70,0.00,,---,0.00,VWS V14.01,2013-05-15 05:16:00,
2013-05-15 01:21:00,72.6,61.9,29.53,WNW,300,1.0,2.0,69,0.00,,---,0.00,VWS V14.01,2013-05-15 05:21:00,
2013-05-15 01:26:00,72.7,62.0,29.53,WNW,300,0.0,1.0,69,0.00,,---,0.00,VWS V14.01,2013-05-15 05:26:00,
2013-05-15 01:31:00,72.6,61.9,29.53,WNW,300,0.0,3.0,69,0.00,,---,0.00,VWS V14.01,2013-05-15 05:31:00,
2013-05-15 01:36:00,72.9,62.1,29.52,NW,305,0.0,2.0,69,0.00,,---,0.00,VWS V14.01,2013-05-15 05:36:00,
2013-05-15 01:41:00,72.6,62.3,29.52,NW,305,0.0,0.0,70,0.00,,---,0.00,VWS V14.01,2013-05-15 05:41:00,
2013-05-15 01:46:00,72.5,62.2,29.52,NW,305,0.0,2.0,70,0.00,,---,0.00,VWS V14.01,2013-05-15 05:46:00,
2013-05-15 01:51:00,72.7,62.0,29.51,North,4,0.0,4.0,69,0.00,,---,0.00,VWS V14.01,2013-05-15 05:51:00,
2013-05-15 01:56:00,73.0,62.2,29.51,WSW,243,0.0,3.0,69,0.00,,---,0.00,VWS V14.01,2013-05-15 05:56:00,
2013-05-15 02:01:00,73.2,62.0,29.51,WSW,248,0.0,2.0,68,0.00,,---,0.00,VWS V14.01,2013-05-15 06:01:00,
2013-05-15 02:06:00,73.3,62.1,29.52,WSW,248,0.0,2.0,68,0.00,,---,0.00,VWS V14.01,2013-05-15 06:06:00,
2013-05-15 02:11:00,73.5,61.9,29.52,WSW,248,0.0,2.0,67,0.00,,---,0.00,VWS V14.01,2013-05-15 06:11:00,
2013-05-15 02:16:00,73.5,61.9,29.52,WSW,248,1.0,1.0,67,0.00,,---,0.00,VWS V14.01,2013-05-15 06:16:00,
2013-05-15 02:21:00,73.6,61.5,29.52,WSW,248,1.0,3.0,66,0.00,,---,0.00,VWS V14.01,2013-05-15 06:21:00,
2013-05-15 02:26:00,73.9,61.4,29.52,WSW,248,2.0,3.0,65,0.00,,---,0.00,VWS V14.01,2013-05-15 06:26:00,
2013-05-15 02:31:00,74.2,61.2,29.52,WSW,248,3.0,3.0,64,0.00,,---,0.00,VWS V14.01,2013-05-15 06:31:00,
2013-05-15 02:36:00,74.6,61.2,29.52,WSW,255,1.0,3.0,63,0.00,,---,0.00,VWS V14.01,2013-05-15 06:36:00,
2013-05-15 02:40:00,74.5,61.1,29.52,WSW,250,0.0,3.0,63,0.00,,---,0.00,VWS V14.01,2013-05-15 06:40:00,
2013-05-15 02:45:00,74.4,60.5,29.52,WSW,250,0.0,2.0,62,0.00,,---,0.00,VWS V14.01,2013-05-15 06:45:00,
2013-05-15 02:50:00,74.6,60.7,29.52,East,80,1.0,3.0,62,0.00,,---,0.00,VWS V14.01,2013-05-15 06:50:00,
2013-05-15 02:55:00,74.3,60.5,29.52,SSW,210,0.0,3.0,62,0.00,,---,0.00,VWS V14.01,2013-05-15 06:55:00,
2013-05-15 03:00:00,74.5,60.2,29.52,SSW,193,0.0,2.0,61,0.00,,---,0.00,VWS V14.01,2013-05-15 07:00:00,
2013-05-15 03:05:00,74.6,60.3,29.51,SSW,207,1.0,3.0,61,0.00,,---,0.00,VWS V14.01,2013-05-15 07:05:00,
2013-05-15 03:10:00,74.6,59.8,29.51,SSE,148,0.0,2.0,60,0.00,,---,0.00,VWS V14.01,2013-05-15 07:10:00,
2013-05-15 03:15:00,74.6,60.3,29.51,East,84,3.0,3.0,61,0.00,,---,0.00,VWS V14.01,2013-05-15 07:15:00,
2013-05-15 03:20:00,74.5,59.7,29.51,SSE,147,0.0,1.0,60,0.00,,---,0.00,VWS V14.01,2013-05-15 07:20:00,
2013-05-15 03:25:00,74.4,59.6,29.51,ENE,73,0.0,1.0,60,0.00,,---,0.00,VWS V14.01,2013-05-15 07:25:00,
2013-05-15 03:30:00,74.2,59.9,29.51,SSE,164,0.0,1.0,61,0.00,,---,0.00,VWS V14.01,2013-05-15 07:30:00,
2013-05-15 03:35:00,74.1,59.8,29.51,SW,219,1.0,4.0,61,0.00,,---,0.00,VWS V14.01,2013-05-15 07:35:00,
2013-05-15 03:40:00,74.1,59.3,29.51,WSW,250,0.0,6.0,60,0.00,,---,0.00,VWS V14.01,2013-05-15 07:40:00,
2013-05-15 03:45:00,74.2,59.0,29.51,WSW,250,2.0,2.0,59,0.00,,---,0.00,VWS V14.01,2013-05-15 07:45:00,
2013-05-15 03:50:00,74.6,58.9,29.50,NW,319,4.0,15.0,58,0.00,,---,0.00,VWS V14.01,2013-05-15 07:50:00,
2013-05-15 03:55:00,74.9,58.7,29.50,WSW,240,0.0,5.0,57,0.00,,---,0.00,VWS V14.01,2013-05-15 07:55:00,
2013-05-15 04:00:00,75.0,58.3,29.50,SSW,212,0.0,6.0,56,0.00,,---,0.00,VWS V14.01,2013-05-15 08:00:00,
2013-05-15 04:05:00,75.0,58.3,29.50,WNW,288,1.0,12.0,56,0.00,,---,0.00,VWS V14.01,2013-05-15 08:05:00,
2013-05-15 04:10:00,75.1,58.3,29.50,SW,236,6.0,11.0,56,0.00,,---,0.00,VWS V14.01,2013-05-15 08:10:00,
2013-05-15 04:15:00,74.9,58.2,29.50,West,279,2.0,4.0,56,0.00,,---,0.00,VWS V14.01,2013-05-15 08:15:00,
2013-05-15 04:20:00,74.9,58.2,29.50,West,273,0.0,5.0,56,0.00,,---,0.00,VWS V14.01,2013-05-15 08:20:00,
2013-05-15 04:25:00,74.9,58.2,29.50,East,99,1.0,13.0,56,0.00,,---,0.00,VWS V14.01,2013-05-15 08:25:00,
2013-05-15 04:30:00,74.8,58.1,29.50,SW,235,0.0,4.0,56,0.00,,---,0.00,VWS V14.01,2013-05-15 08:30:00,
2013-05-15 04:35:00,74.5,57.8,29.50,WSW,245,3.0,5.0,56,0.00,,---,0.00,VWS V14.01,2013-05-15 08:35:00,
2013-05-15 04:40:00,74.4,58.2,29.50,WSW,255,0.0,4.0,57,0.00,,---,0.00,VWS V14.01,2013-05-15 08:40:00,
2013-05-15 04:45:00,74.2,57.5,29.50,South,188,0.0,9.0,56,0.00,,---,0.00,VWS V14.01,2013-05-15 08:45:00,
2013-05-15 04:50:00,74.2,57.5,29.51,WSW,240,4.0,6.0,56,0.00,,---,0.00,VWS V14.01,2013-05-15 08:50:00,
2013-05-15 04:55:00,74.2,57.0,29.51,West,265,0.0,5.0,55,0.00,,---,0.00,VWS V14.01,2013-05-15 08:55:00,
2013-05-15 05:00:00,74.0,57.3,29.51,West,260,1.0,6.0,56,0.00,,---,0.00,VWS V14.01,2013-05-15 09:00:00,
2013-05-15 05:05:00,73.8,57.1,29.51,WSW,252,2.0,7.0,56,0.00,,---,0.00,VWS V14.01,2013-05-15 09:05:00,
2013-05-15 05:10:00,73.7,57.0,29.51,WSW,238,1.0,5.0,56,0.00,,---,0.00,VWS V14.01,2013-05-15 09:10:00,
2013-05-15 05:15:00,73.6,57.4,29.51,SW,233,0.0,4.0,57,0.00,,---,0.00,VWS V14.01,2013-05-15 09:15:00,
2013-05-15 05:20:00,73.4,57.3,29.51,WNW,287,1.0,4.0,57,0.00,,---,0.00,VWS V14.01,2013-05-15 09:20:00,
2013-05-15 05:25:00,73.2,57.1,29.51,West,281,2.0,3.0,57,0.00,,---,0.00,VWS V14.01,2013-05-15 09:25:00,
2013-05-15 05:30:00,73.0,57.4,29.51,SSW,207,0.0,4.0,58,0.00,,---,0.00,VWS V14.01,2013-05-15 09:30:00,
2013-05-15 05:35:00,72.7,57.6,29.51,SW,236,2.0,3.0,59,0.00,,---,0.00,VWS V14.01,2013-05-15 09:35:00,
2013-05-15 05:40:00,72.5,57.4,29.52,West,276,0.0,6.0,59,0.00,,---,0.00,VWS V14.01,2013-05-15 09:40:00,
2013-05-15 05:45:00,72.3,57.7,29.52,West,276,0.0,2.0,60,0.00,,---,0.00,VWS V14.01,2013-05-15 09:45:00,
2013-05-15 05:50:00,71.9,57.3,29.54,West,276,1.0,2.0,60,0.00,,---,0.00,VWS V14.01,2013-05-15 09:50:00,
2013-05-15 05:55:00,71.8,57.2,29.54,West,277,0.0,5.0,60,0.00,,---,0.00,VWS V14.01,2013-05-15 09:55:00,
2013-05-15 06:00:00,71.9,57.3,29.54,West,259,2.0,3.0,60,0.00,,---,0.00,VWS V14.01,2013-05-15 10:00:00,
2013-05-15 06:05:00,71.8,57.2,29.54,SW,221,2.0,3.0,60,0.00,,---,0.00,VWS V14.01,2013-05-15 10:05:00,
2013-05-15 06:10:00,71.8,57.2,29.54,WNW,284,0.0,3.0,60,0.00,,---,0.00,VWS V14.01,2013-05-15 10:10:00,
2013-05-15 06:15:00,71.8,57.2,29.54,WSW,257,0.0,3.0,60,0.00,,---,0.00,VWS V14.01,2013-05-15 10:15:00,
2013-05-15 06:20:00,71.4,58.6,29.54,WSW,250,0.0,1.0,64,0.00,,---,0.00,VWS V14.01,2013-05-15 10:20:00,
2013-05-15 06:25:00,70.2,58.7,29.55,WSW,250,0.0,1.0,67,0.00,,---,0.00,VWS V14.01,2013-05-15 10:25:00,
2013-05-15 06:30:00,69.5,58.5,29.55,WSW,250,0.0,2.0,68,0.00,,---,0.00,VWS V14.01,2013-05-15 10:30:00,
2013-05-15 06:35:00,69.6,58.6,29.55,WSW,250,0.0,1.0,68,0.00,,---,0.00,VWS V14.01,2013-05-15 10:35:00,
2013-05-15 06:40:00,69.6,58.2,29.57,WSW,250,0.0,1.0,67,0.00,,---,0.00,VWS V14.01,2013-05-15 10:40:00,
2013-05-15 06:45:00,69.9,58.5,29.57,East,100,0.0,7.0,67,0.00,,---,0.00,VWS V14.01,2013-05-15 10:45:00,
2013-05-15 06:50:00,70.2,58.7,29.57,South,190,0.0,1.0,67,0.00,,---,0.00,VWS V14.01,2013-05-15 10:50:00,
2013-05-15 06:55:00,70.3,58.4,29.57,WNW,292,0.0,7.0,66,0.00,,---,0.00,VWS V14.01,2013-05-15 10:55:00,
2013-05-15 07:00:00,70.5,58.2,29.57,WNW,303,0.0,1.0,65,0.00,,---,0.00,VWS V14.01,2013-05-15 11:00:00,
2013-05-15 07:05:00,70.4,58.1,29.57,WNW,303,0.0,0.0,65,0.00,,---,0.00,VWS V14.01,2013-05-15 11:05:00,
2013-05-15 07:10:00,70.4,58.5,29.57,WNW,302,0.0,1.0,66,0.00,,---,0.00,VWS V14.01,2013-05-15 11:10:00,
2013-05-15 07:16:00,70.3,58.4,29.57,WNW,302,0.0,1.0,66,0.00,,---,0.00,VWS V14.01,2013-05-15 11:16:00,
2013-05-15 07:21:00,69.9,58.9,29.59,WNW,302,0.0,1.0,68,0.00,,---,0.00,VWS V14.01,2013-05-15 11:21:00,
2013-05-15 07:26:00,69.6,59.0,29.59,WNW,300,0.0,1.0,69,0.00,,---,0.00,VWS V14.01,2013-05-15 11:26:00,
2013-05-15 07:31:00,69.5,59.3,29.59,WNW,297,0.0,3.0,70,0.00,,---,0.00,VWS V14.01,2013-05-15 11:31:00,
2013-05-15 07:36:00,69.6,59.4,29.59,WNW,297,0.0,1.0,70,0.00,,---,0.00,VWS V14.01,2013-05-15 11:36:00,
2013-05-15 07:41:00,69.5,59.3,29.59,WNW,297,0.0,1.0,70,0.00,,---,0.00,VWS V14.01,2013-05-15 11:41:00,
2013-05-15 07:46:00,69.5,59.7,29.59,WNW,297,0.0,0.0,71,0.00,,---,0.00,VWS V14.01,2013-05-15 11:46:00,
2013-05-15 07:51:00,69.6,59.4,29.59,WNW,301,0.0,1.0,70,0.00,,---,0.00,VWS V14.01,2013-05-15 11:51:00,
2013-05-15 07:56:00,70.0,59.4,29.59,WNW,301,0.0,1.0,69,0.00,,---,0.00,VWS V14.01,2013-05-15 11:56:00,
2013-05-15 08:01:00,69.7,60.3,29.59,WNW,301,0.0,1.0,72,0.00,,---,0.00,VWS V14.01,2013-05-15 12:01:00,
2013-05-15 08:06:00,69.9,60.1,29.60,SE,130,0.0,1.0,71,0.00,,---,0.00,VWS V14.01,2013-05-15 12:06:00,
2013-05-15 08:11:00,70.2,60.4,29.60,NW,316,0.0,3.0,71,0.00,,---,0.00,VWS V14.01,2013-05-15 12:11:00,
2013-05-15 08:16:00,70.7,60.0,29.60,NW,316,0.0,2.0,69,0.00,,---,0.00,VWS V14.01,2013-05-15 12:16:00,
2013-05-15 08:21:00,71.0,60.3,29.61,NW,316,0.0,0.0,69,0.00,,---,0.00,VWS V14.01,2013-05-15 12:21:00,
2013-05-15 08:26:00,71.4,60.3,29.61,NW,316,0.0,1.0,68,0.00,,---,0.00,VWS V14.01,2013-05-15 12:26:00,
2013-05-15 08:31:00,71.8,60.3,29.61,NW,315,0.0,0.0,67,0.00,,---,0.00,VWS V14.01,2013-05-15 12:31:00,
2013-05-15 08:36:00,72.2,60.7,29.61,NW,315,0.0,0.0,67,0.00,,---,0.00,VWS V14.01,2013-05-15 12:36:00,
2013-05-15 08:41:00,72.4,60.8,29.61,West,264,0.0,0.0,67,0.00,,---,0.00,VWS V14.01,2013-05-15 12:41:00,
2013-05-15 08:47:00,72.5,59.6,29.61,West,277,0.0,0.0,64,0.00,,---,0.00,VWS V14.01,2013-05-15 12:47:00,
2013-05-15 08:52:00,72.6,59.7,29.61,West,277,0.0,0.0,64,0.00,,---,0.00,VWS V14.01,2013-05-15 12:52:00,
2013-05-15 08:57:00,72.9,60.5,29.61,WNW,298,0.0,1.0,65,0.00,,---,0.00,VWS V14.01,2013-05-15 12:57:00,
2013-05-15 09:02:00,73.3,60.4,29.61,WNW,298,0.0,2.0,64,0.00,,---,0.00,VWS V14.01,2013-05-15 13:02:00,
2013-05-15 09:07:00,73.7,60.8,29.62,WNW,295,0.0,1.0,64,0.00,,---,0.00,VWS V14.01,2013-05-15 13:07:00,
2013-05-15 09:12:00,73.9,61.0,29.62,WNW,295,0.0,2.0,64,0.00,,---,0.00,VWS V14.01,2013-05-15 13:12:00,
2013-05-15 09:17:00,74.1,60.3,29.62,NW,310,0.0,0.0,62,0.00,,---,0.00,VWS V14.01,2013-05-15 13:17:00,
2013-05-15 09:22:00,74.4,61.0,29.62,NW,304,0.0,0.0,63,0.00,,---,0.00,VWS V14.01,2013-05-15 13:22:00,
2013-05-15 09:27:00,74.1,59.3,29.62,West,271,0.0,1.0,60,0.00,,---,0.00,VWS V14.01,2013-05-15 13:27:00,
2013-05-15 09:32:00,74.6,58.9,29.62,NW,307,0.0,7.0,58,0.00,,---,0.00,VWS V14.01,2013-05-15 13:32:00,
2013-05-15 09:37:00,75.1,57.3,29.62,SSE,158,3.0,3.0,54,0.00,,---,0.00,VWS V14.01,2013-05-15 13:37:00,
2013-05-15 09:42:00,75.5,55.6,29.62,West,276,0.0,9.0,50,0.00,,---,0.00,VWS V14.01,2013-05-15 13:42:00,
2013-05-15 09:47:00,75.8,55.9,29.62,WNW,297,5.0,6.0,50,0.00,,---,0.00,VWS V14.01,2013-05-15 13:47:00,
2013-05-15 09:53:00,76.1,53.8,29.63,NW,309,2.0,5.0,46,0.00,,---,0.00,VWS V14.01,2013-05-15 13:53:00,
2013-05-15 09:58:00,76.3,54.6,29.63,WNW,291,2.0,6.0,47,0.00,,---,0.00,VWS V14.01,2013-05-15 13:58:00,
2013-05-15 10:03:00,76.6,55.5,29.63,WNW,290,1.0,2.0,48,0.00,,---,0.00,VWS V14.01,2013-05-15 14:03:00,
2013-05-15 10:09:00,76.6,53.7,29.64,North,1,2.0,6.0,45,0.00,,---,0.00,VWS V14.01,2013-05-15 14:09:00,
2013-05-15 10:14:00,76.3,52.2,29.64,WNW,283,1.0,6.0,43,0.00,,---,0.00,VWS V14.01,2013-05-15 14:14:00,
2013-05-15 10:19:00,76.4,52.9,29.64,WNW,302,1.0,6.0,44,0.00,,---,0.00,VWS V14.01,2013-05-15 14:19:00,
2013-05-15 10:24:00,76.5,53.0,29.64,WNW,285,0.0,5.0,44,0.00,,---,0.00,VWS V14.01,2013-05-15 14:24:00,
2013-05-15 10:29:00,76.2,54.5,29.64,WSW,248,3.0,3.0,47,0.00,,---,0.00,VWS V14.01,2013-05-15 14:29:00,
2013-05-15 10:34:00,76.6,53.7,29.64,SW,233,2.0,5.0,45,0.00,,---,0.00,VWS V14.01,2013-05-15 14:34:00,
2013-05-15 10:39:00,76.5,52.4,29.64,West,268,1.0,8.0,43,0.00,,---,0.00,VWS V14.01,2013-05-15 14:39:00,
2013-05-15 10:44:00,76.2,52.1,29.64,WSW,253,2.0,5.0,43,0.00,,---,0.00,VWS V14.01,2013-05-15 14:44:00,
2013-05-15 10:49:00,76.0,54.3,29.64,WNW,287,2.0,4.0,47,0.00,,---,0.00,VWS V14.01,2013-05-15 14:49:00,
2013-05-15 10:54:00,76.5,52.4,29.64,West,275,0.0,7.0,43,0.00,,---,0.00,VWS V14.01,2013-05-15 14:54:00,
2013-05-15 10:59:00,77.2,53.6,29.64,West,276,2.0,2.0,44,0.00,,---,0.00,VWS V14.01,2013-05-15 14:59:00,
2013-05-15 11:04:00,77.9,53.0,29.64,WNW,295,4.0,9.0,42,0.00,,---,0.00,VWS V14.01,2013-05-15 15:04:00,
2013-05-15 11:10:00,77.9,52.3,29.64,SE,124,1.0,4.0,41,0.00,,---,0.00,VWS V14.01,2013-05-15 15:10:00,
2013-05-15 11:15:00,77.7,52.8,29.64,WNW,295,3.0,5.0,42,0.00,,---,0.00,VWS V14.01,2013-05-15 15:15:00,
2013-05-15 11:20:00,77.5,52.6,29.64,WNW,284,1.0,11.0,42,0.00,,---,0.00,VWS V14.01,2013-05-15 15:20:00,
2013-05-15 11:25:00,77.7,52.2,29.65,North,1,2.0,5.0,41,0.00,,---,0.00,VWS V14.01,2013-05-15 15:25:00,
2013-05-15 11:30:00,77.6,51.4,29.65,North,357,0.0,7.0,40,0.00,,---,0.00,VWS V14.01,2013-05-15 15:30:00,
2013-05-15 11:35:00,77.4,51.2,29.65,NW,314,0.0,6.0,40,0.00,,---,0.00,VWS V14.01,2013-05-15 15:35:00,
2013-05-15 11:40:00,77.6,50.7,29.66,West,259,0.0,10.0,39,0.00,,---,0.00,VWS V14.01,2013-05-15 15:40:00,
2013-05-15 11:45:00,77.5,51.3,29.66,WNW,292,0.0,11.0,40,0.00,,---,0.00,VWS V14.01,2013-05-15 15:45:00,
2013-05-15 11:50:00,77.2,49.7,29.66,WSW,251,4.0,13.0,38,0.00,,---,0.00,VWS V14.01,2013-05-15 15:50:00,
2013-05-15 11:55:00,77.0,50.2,29.67,WSW,243,3.0,6.0,39,0.00,,---,0.00,VWS V14.01,2013-05-15 15:55:00,
2013-05-15 12:00:00,76.8,49.3,29.67,West,281,3.0,11.0,38,0.00,,---,0.00,VWS V14.01,2013-05-15 16:00:00,
2013-05-15 12:05:00,76.5,49.0,29.68,WSW,255,1.0,8.0,38,0.00,,---,0.00,VWS V14.01,2013-05-15 16:05:00,
2013-05-15 12:10:00,76.7,51.9,29.68,SSW,212,0.0,7.0,42,0.00,,---,0.00,VWS V14.01,2013-05-15 16:10:00,
2013-05-15 12:15:00,76.5,49.7,29.68,NW,304,0.0,6.0,39,0.00,,---,0.00,VWS V14.01,2013-05-15 16:15:00,
2013-05-15 12:20:00,76.6,51.2,29.68,WSW,248,3.0,7.0,41,0.00,,---,0.00,VWS V14.01,2013-05-15 16:20:00,
2013-05-15 12:25:00,76.5,49.0,29.68,WSW,253,3.0,6.0,38,0.00,,---,0.00,VWS V14.01,2013-05-15 16:25:00,
2013-05-15 12:31:00,76.7,51.2,29.68,NNW,331,2.0,4.0,41,0.00,,---,0.00,VWS V14.01,2013-05-15 16:31:00,
2013-05-15 12:36:00,77.0,49.5,29.68,NNW,336,1.0,4.0,38,0.00,,---,0.00,VWS V14.01,2013-05-15 16:36:00,
2013-05-15 12:41:00,77.5,51.3,29.68,WSW,257,2.0,6.0,40,0.00,,---,0.00,VWS V14.01,2013-05-15 16:41:00,
2013-05-15 12:46:00,77.1,51.6,29.68,NNW,347,1.0,5.0,41,0.00,,---,0.00,VWS V14.01,2013-05-15 16:46:00,
2013-05-15 12:51:00,77.3,50.4,29.68,NNW,330,5.0,6.0,39,0.00,,---,0.00,VWS V14.01,2013-05-15 16:51:00,
2013-05-15 12:56:00,77.3,50.4,29.68,NNW,337,2.0,6.0,39,0.00,,---,0.00,VWS V14.01,2013-05-15 16:56:00,
2013-05-15 13:01:00,77.1,50.9,29.68,NW,319,3.0,7.0,40,0.00,,---,0.00,VWS V14.01,2013-05-15 17:01:00,
2013-05-15 13:06:00,77.1,50.9,29.68,West,281,3.0,4.0,40,0.00,,---,0.00,VWS V14.01,2013-05-15 17:06:00,
2013-05-15 13:11:00,77.4,49.8,29.68,SSW,210,7.0,7.0,38,0.00,,---,0.00,VWS V14.01,2013-05-15 17:11:00,
2013-05-15 13:16:00,77.5,52.6,29.68,North,1,2.0,2.0,42,0.00,,---,0.00,VWS V14.01,2013-05-15 17:16:00,
2013-05-15 13:21:00,77.6,52.1,29.68,NW,324,1.0,1.0,41,0.00,,---,0.00,VWS V14.01,2013-05-15 17:21:00,
2013-05-15 13:27:00,77.6,52.1,29.68,WSW,252,1.0,7.0,41,0.00,,---,0.00,VWS V14.01,2013-05-15 17:27:00,
2013-05-15 13:32:00,77.6,52.1,29.68,NW,312,1.0,3.0,41,0.00,,---,0.00,VWS V14.01,2013-05-15 17:32:00,
2013-05-15 13:37:00,77.6,52.1,29.68,NNW,330,1.0,1.0,41,0.00,,---,0.00,VWS V14.01,2013-05-15 17:37:00,
2013-05-15 13:42:00,77.5,52.6,29.68,West,269,0.0,5.0,42,0.00,,---,0.00,VWS V14.01,2013-05-15 17:42:00,
2013-05-15 13:47:00,77.5,52.0,29.68,West,259,2.0,4.0,41,0.00,,---,0.00,VWS V14.01,2013-05-15 17:47:00,
2013-05-15 13:52:00,77.8,53.5,29.68,West,269,3.0,3.0,43,0.00,,---,0.00,VWS V14.01,2013-05-15 17:52:00,
2013-05-15 13:57:00,78.5,54.2,29.68,WSW,252,5.0,5.0,43,0.00,,---,0.00,VWS V14.01,2013-05-15 17:57:00,
2013-05-15 14:02:00,78.3,52.0,29.68,WNW,293,4.0,4.0,40,0.00,,---,0.00,VWS V14.01,2013-05-15 18:02:00,
2013-05-15 14:07:00,78.0,52.4,29.68,NW,321,0.0,2.0,41,0.00,,---,0.00,VWS V14.01,2013-05-15 18:07:00,
2013-05-15 14:12:00,77.8,50.2,29.68,WNW,295,3.0,13.0,38,0.00,,---,0.00,VWS V14.01,2013-05-15 18:12:00,
2013-05-15 14:17:00,77.4,51.9,29.68,SSE,156,0.0,2.0,41,0.00,,---,0.00,VWS V14.01,2013-05-15 18:17:00,
2013-05-15 14:23:00,77.8,52.2,29.68,WNW,282,0.0,4.0,41,0.00,,---,0.00,VWS V14.01,2013-05-15 18:23:00,
2013-05-15 14:28:00,78.9,51.9,29.68,West,271,3.0,6.0,39,0.00,,---,0.00,VWS V14.01,2013-05-15 18:28:00,
2013-05-15 14:33:00,79.0,54.6,29.68,WSW,249,1.0,3.0,43,0.00,,---,0.00,VWS V14.01,2013-05-15 18:33:00,
2013-05-15 14:38:00,78.7,53.0,29.68,NNE,12,0.0,7.0,41,0.00,,---,0.00,VWS V14.01,2013-05-15 18:38:00,
2013-05-15 14:43:00,78.8,51.1,29.68,SSW,213,1.0,4.0,38,0.00,,---,0.00,VWS V14.01,2013-05-15 18:43:00,
2013-05-15 14:48:00,78.6,53.6,29.68,NNW,340,1.0,5.0,42,0.00,,---,0.00,VWS V14.01,2013-05-15 18:48:00,
2013-05-15 14:53:00,78.4,52.8,29.68,SSE,150,0.0,3.0,41,0.00,,---,0.00,VWS V14.01,2013-05-15 18:53:00,
2013-05-15 14:58:00,78.6,50.9,29.68,SW,214,1.0,6.0,38,0.00,,---,0.00,VWS V14.01,2013-05-15 18:58:00,
2013-05-15 15:03:00,79.0,52.6,29.68,West,269,6.0,6.0,40,0.00,,---,0.00,VWS V14.01,2013-05-15 19:03:00,
2013-05-15 15:09:00,79.2,52.1,29.67,West,274,2.0,10.0,39,0.00,,---,0.00,VWS V14.01,2013-05-15 19:09:00,
2013-05-15 15:14:00,79.2,52.1,29.67,WNW,302,4.0,5.0,39,0.00,,---,0.00,VWS V14.01,2013-05-15 19:14:00,
2013-05-15 15:19:00,78.7,51.7,29.67,West,268,2.0,5.0,39,0.00,,---,0.00,VWS V14.01,2013-05-15 19:19:00,
2013-05-15 15:24:00,79.1,52.0,29.68,NNW,328,2.0,8.0,39,0.00,,---,0.00,VWS V14.01,2013-05-15 19:24:00,
2013-05-15 15:29:00,79.2,52.8,29.68,NW,321,6.0,7.0,40,0.00,,---,0.00,VWS V14.01,2013-05-15 19:29:00,
2013-05-15 15:34:00,79.1,52.0,29.68,West,259,0.0,6.0,39,0.00,,---,0.00,VWS V14.01,2013-05-15 19:34:00,
2013-05-15 15:39:00,79.1,51.3,29.68,WSW,256,2.0,3.0,38,0.00,,---,0.00,VWS V14.01,2013-05-15 19:39:00,
2013-05-15 15:44:00,79.1,51.3,29.68,WSW,255,1.0,4.0,38,0.00,,---,0.00,VWS V14.01,2013-05-15 19:44:00,
2013-05-15 15:49:00,78.6,53.0,29.68,WSW,246,1.0,7.0,41,0.00,,---,0.00,VWS V14.01,2013-05-15 19:49:00,
2013-05-15 15:54:00,78.5,53.5,29.68,WSW,250,6.0,6.0,42,0.00,,---,0.00,VWS V14.01,2013-05-15 19:54:00,
2013-05-15 15:59:00,78.6,52.3,29.68,WNW,286,1.0,4.0,40,0.00,,---,0.00,VWS V14.01,2013-05-15 19:59:00,
2013-05-15 16:04:00,78.5,51.5,29.68,WNW,284,1.0,4.0,39,0.00,,---,0.00,VWS V14.01,2013-05-15 20:04:00,
2013-05-15 16:09:00,78.8,51.8,29.68,NNW,331,0.0,3.0,39,0.00,,---,0.00,VWS V14.01,2013-05-15 20:09:00,
2013-05-15 16:14:00,79.0,52.6,29.68,NW,307,0.0,4.0,40,0.00,,---,0.00,VWS V14.01,2013-05-15 20:14:00,
2013-05-15 16:19:00,78.5,52.2,29.68,West,264,1.0,6.0,40,0.00,,---,0.00,VWS V14.01,2013-05-15 20:19:00,
2013-05-15 16:24:00,78.7,52.4,29.68,WSW,243,3.0,6.0,40,0.00,,---,0.00,VWS V14.01,2013-05-15 20:24:00,
2013-05-15 16:29:00,78.7,53.7,29.68,NW,326,1.0,3.0,42,0.00,,---,0.00,VWS V14.01,2013-05-15 20:29:00,
2013-05-15 16:34:00,78.5,50.8,29.68,NW,319,1.0,5.0,38,0.00,,---,0.00,VWS V14.01,2013-05-15 20:34:00,
2013-05-15 16:39:00,78.6,52.3,29.68,WNW,300,0.0,3.0,40,0.00,,---,0.00,VWS V14.01,2013-05-15 20:39:00,
2013-05-15 16:44:00,78.7,51.0,29.68,WSW,245,0.0,6.0,38,0.00,,---,0.00,VWS V14.01,2013-05-15 20:44:00,
2013-05-15 16:49:00,78.4,50.7,29.68,WNW,296,0.0,2.0,38,0.00,,---,0.00,VWS V14.01,2013-05-15 20:49:00,
2013-05-15 16:54:00,78.6,51.6,29.68,NNW,327,0.0,3.0,39,0.00,,---,0.00,VWS V14.01,2013-05-15 20:54:00,
2013-05-15 16:59:00,78.9,50.4,29.68,WSW,257,8.0,8.0,37,0.00,,---,0.00,VWS V14.01,2013-05-15 20:59:00,
2013-05-15 17:04:00,78.5,51.5,29.68,NW,314,4.0,6.0,39,0.00,,---,0.00,VWS V14.01,2013-05-15 21:04:00,
2013-05-15 17:09:00,78.0,52.4,29.68,WNW,302,1.0,2.0,41,0.00,,---,0.00,VWS V14.01,2013-05-15 21:09:00,
2013-05-15 17:15:00,78.0,51.8,29.68,NW,311,0.0,5.0,40,0.00,,---,0.00,VWS V14.01,2013-05-15 21:15:00,
2013-05-15 17:20:00,77.9,52.3,29.68,NW,315,1.0,1.0,41,0.00,,---,0.00,VWS V14.01,2013-05-15 21:20:00,
2013-05-15 17:25:00,78.0,52.4,29.68,WSW,248,1.0,6.0,41,0.00,,---,0.00,VWS V14.01,2013-05-15 21:25:00,
2013-05-15 17:30:00,77.5,52.0,29.68,NNW,338,1.0,3.0,41,0.00,,---,0.00,VWS V14.01,2013-05-15 21:30:00,
2013-05-15 17:35:00,77.6,52.1,29.68,NNW,333,1.0,2.0,41,0.00,,---,0.00,VWS V14.01,2013-05-15 21:35:00,
2013-05-15 17:40:00,77.9,52.3,29.67,North,0,1.0,4.0,41,0.00,,---,0.00,VWS V14.01,2013-05-15 21:40:00,
2013-05-15 17:45:00,77.8,51.6,29.67,West,281,1.0,3.0,40,0.00,,---,0.00,VWS V14.01,2013-05-15 21:45:00,
2013-05-15 17:50:00,77.6,52.1,29.67,SW,236,2.0,2.0,41,0.00,,---,0.00,VWS V14.01,2013-05-15 21:50:00,
2013-05-15 17:55:00,77.7,52.2,29.67,West,259,3.0,5.0,41,0.00,,---,0.00,VWS V14.01,2013-05-15 21:55:00,
2013-05-15 18:00:00,77.4,52.5,29.67,NW,316,0.0,5.0,42,0.00,,---,0.00,VWS V14.01,2013-05-15 22:00:00,
2013-05-15 18:05:00,77.1,51.6,29.67,WNW,296,1.0,3.0,41,0.00,,---,0.00,VWS V14.01,2013-05-15 22:05:00,
2013-05-15 18:10:00,77.1,52.3,29.67,WSW,257,4.0,5.0,42,0.00,,---,0.00,VWS V14.01,2013-05-15 22:10:00,
2013-05-15 18:15:00,77.0,51.5,29.67,NNW,342,0.0,4.0,41,0.00,,---,0.00,VWS V14.01,2013-05-15 22:15:00,
2013-05-15 18:20:00,76.7,51.9,29.67,North,353,1.0,4.0,42,0.00,,---,0.00,VWS V14.01,2013-05-15 22:20:00,
2013-05-15 18:25:00,76.5,52.4,29.67,NNW,348,1.0,2.0,43,0.00,,---,0.00,VWS V14.01,2013-05-15 22:25:00,
2013-05-15 18:30:00,76.7,53.2,29.67,NNW,347,0.0,1.0,44,0.00,,---,0.00,VWS V14.01,2013-05-15 22:30:00,
2013-05-15 18:36:00,76.5,52.4,29.67,NW,325,1.0,2.0,43,0.00,,---,0.00,VWS V14.01,2013-05-15 22:36:00,
2013-05-15 18:41:00,76.4,52.3,29.67,NNW,328,0.0,2.0,43,0.00,,---,0.00,VWS V14.01,2013-05-15 22:41:00,
2013-05-15 18:46:00,76.2,52.7,29.67,SW,225,0.0,3.0,44,0.00,,---,0.00,VWS V14.01,2013-05-15 22:46:00,
2013-05-15 18:51:00,76.1,52.6,29.67,NW,319,1.0,2.0,44,0.00,,---,0.00,VWS V14.01,2013-05-15 22:51:00,
2013-05-15 18:56:00,76.1,52.6,29.67,West,279,1.0,3.0,44,0.00,,---,0.00,VWS V14.01,2013-05-15 22:56:00,
2013-05-15 19:01:00,75.8,51.7,29.67,WSW,247,0.0,4.0,43,0.00,,---,0.00,VWS V14.01,2013-05-15 23:01:00,
2013-05-15 19:06:00,75.7,52.3,29.67,WSW,247,0.0,1.0,44,0.00,,---,0.00,VWS V14.01,2013-05-15 23:06:00,
2013-05-15 19:11:00,75.6,52.2,29.67,WSW,249,0.0,1.0,44,0.00,,---,0.00,VWS V14.01,2013-05-15 23:11:00,
2013-05-15 19:17:00,75.6,52.8,29.67,WSW,250,0.0,0.0,45,0.00,,---,0.00,VWS V14.01,2013-05-15 23:17:00,
2013-05-15 19:22:00,75.4,52.6,29.67,NW,308,0.0,1.0,45,0.00,,---,0.00,VWS V14.01,2013-05-15 23:22:00,
2013-05-15 19:27:00,75.3,52.5,29.67,NW,308,0.0,0.0,45,0.00,,---,0.00,VWS V14.01,2013-05-15 23:27:00,
2013-05-15 19:32:00,75.0,52.2,29.67,NW,308,1.0,1.0,45,0.00,,---,0.00,VWS V14.01,2013-05-15 23:32:00,
2013-05-15 19:37:00,74.7,52.0,29.68,West,273,0.0,1.0,45,0.00,,---,0.00,VWS V14.01,2013-05-15 23:37:00,
2013-05-15 19:42:00,74.4,52.3,29.68,West,273,0.0,1.0,46,0.00,,---,0.00,VWS V14.01,2013-05-15 23:42:00,
2013-05-15 19:47:00,74.1,52.6,29.68,West,271,1.0,1.0,47,0.00,,---,0.00,VWS V14.01,2013-05-15 23:47:00,
2013-05-15 19:52:00,73.7,51.7,29.68,West,271,0.0,1.0,46,0.00,,---,0.00,VWS V14.01,2013-05-15 23:52:00,
2013-05-15 19:57:00,73.3,51.9,29.68,West,271,0.0,0.0,47,0.00,,---,0.00,VWS V14.01,2013-05-15 23:57:00,
2013-05-15 20:02:00,73.0,52.7,29.68,West,271,0.0,0.0,49,0.00,,---,0.00,VWS V14.01,2013-05-16 00:02:00,
2013-05-15 20:08:00,72.5,52.3,29.68,West,271,0.0,0.0,49,0.00,,---,0.00,VWS V14.01,2013-05-16 00:08:00,
2013-05-15 20:13:00,72.1,52.5,29.68,West,271,0.0,0.0,50,0.00,,---,0.00,VWS V14.01,2013-05-16 00:13:00,
2013-05-15 20:18:00,71.8,52.2,29.68,West,271,0.0,0.0,50,0.00,,---,0.00,VWS V14.01,2013-05-16 00:18:00,
2013-05-15 20:23:00,71.2,52.7,29.68,West,271,0.0,0.0,52,0.00,,---,0.00,VWS V14.01,2013-05-16 00:23:00,
2013-05-15 20:28:00,71.0,52.5,29.68,West,271,0.0,0.0,52,0.00,,---,0.00,VWS V14.01,2013-05-16 00:28:00,
2013-05-15 20:33:00,70.9,51.9,29.68,West,271,0.0,0.0,51,0.00,,---,0.00,VWS V14.01,2013-05-16 00:33:00,
2013-05-15 20:38:00,70.6,53.2,29.68,West,271,0.0,0.0,54,0.00,,---,0.00,VWS V14.01,2013-05-16 00:38:00,
2013-05-15 20:43:00,69.9,52.5,29.68,West,271,0.0,0.0,54,0.00,,---,0.00,VWS V14.01,2013-05-16 00:43:00,
2013-05-15 20:48:00,69.3,52.5,29.68,West,271,0.0,0.0,55,0.00,,---,0.00,VWS V14.01,2013-05-16 00:48:00,
2013-05-15 20:53:00,69.2,52.4,29.69,West,271,0.0,0.0,55,0.00,,---,0.00,VWS V14.01,2013-05-16 00:53:00,
2013-05-15 20:58:00,68.7,53.8,29.69,West,271,0.0,0.0,59,0.00,,---,0.00,VWS V14.01,2013-05-16 00:58:00,
2013-05-15 21:04:00,67.9,54.0,29.69,West,271,0.0,0.0,61,0.00,,---,0.00,VWS V14.01,2013-05-16 01:04:00,
2013-05-15 21:09:00,67.6,53.7,29.68,West,271,0.0,0.0,61,0.00,,---,0.00,VWS V14.01,2013-05-16 01:09:00,
2013-05-15 21:14:00,67.6,52.8,29.68,West,271,0.0,0.0,59,0.00,,---,0.00,VWS V14.01,2013-05-16 01:14:00,
2013-05-15 21:19:00,67.6,53.7,29.68,West,271,0.0,0.0,61,0.00,,---,0.00,VWS V14.01,2013-05-16 01:19:00,
2013-05-15 21:24:00,67.5,54.0,29.67,West,271,0.0,0.0,62,0.00,,---,0.00,VWS V14.01,2013-05-16 01:24:00,
2013-05-15 21:29:00,67.3,54.7,29.67,West,271,0.0,0.0,64,0.00,,---,0.00,VWS V14.01,2013-05-16 01:29:00,
2013-05-15 21:34:00,67.0,54.9,29.67,West,271,0.0,0.0,65,0.00,,---,0.00,VWS V14.01,2013-05-16 01:34:00,
2013-05-15 21:39:00,66.9,53.9,29.67,West,271,0.0,0.0,63,0.00,,---,0.00,VWS V14.01,2013-05-16 01:39:00,
2013-05-15 21:44:00,66.5,55.2,29.67,West,271,0.0,0.0,67,0.00,,---,0.00,VWS V14.01,2013-05-16 01:44:00,
2013-05-15 21:49:00,66.0,55.2,29.67,West,271,0.0,0.0,68,0.00,,---,0.00,VWS V14.01,2013-05-16 01:49:00,
2013-05-15 21:54:00,65.7,54.0,29.69,West,271,0.0,0.0,66,0.00,,---,0.00,VWS V14.01,2013-05-16 01:54:00,
2013-05-15 21:59:00,65.9,53.4,29.69,West,271,0.0,0.0,64,0.00,,---,0.00,VWS V14.01,2013-05-16 01:59:00,
2013-05-15 22:04:00,65.7,54.5,29.69,West,271,0.0,0.0,67,0.00,,---,0.00,VWS V14.01,2013-05-16 02:04:00,
2013-05-15 22:09:00,65.3,54.9,29.70,West,271,0.0,0.0,69,0.00,,---,0.00,VWS V14.01,2013-05-16 02:09:00,
2013-05-15 22:14:00,64.6,54.2,29.70,West,271,0.0,0.0,69,0.00,,---,0.00,VWS V14.01,2013-05-16 02:14:00,
2013-05-15 22:19:00,64.0,54.8,29.70,West,271,0.0,0.0,72,0.00,,---,0.00,VWS V14.01,2013-05-16 02:19:00,
2013-05-15 22:25:00,63.7,53.7,29.69,West,271,0.0,0.0,70,0.00,,---,0.00,VWS V14.01,2013-05-16 02:25:00,
2013-05-15 22:30:00,63.5,53.9,29.69,West,271,0.0,0.0,71,0.00,,---,0.00,VWS V14.01,2013-05-16 02:30:00,
2013-05-15 22:35:00,63.1,53.9,29.69,West,271,0.0,0.0,72,0.00,,---,0.00,VWS V14.01,2013-05-16 02:35:00,
2013-05-15 22:40:00,62.6,54.2,29.69,West,271,0.0,0.0,74,0.00,,---,0.00,VWS V14.01,2013-05-16 02:40:00,
2013-05-15 22:45:00,62.5,54.5,29.69,West,271,0.0,0.0,75,0.00,,---,0.00,VWS V14.01,2013-05-16 02:45:00,
2013-05-15 22:50:00,62.3,54.3,29.69,West,271,0.0,0.0,75,0.00,,---,0.00,VWS V14.01,2013-05-16 02:50:00,
2013-05-15 22:55:00,61.9,54.6,29.70,West,271,0.0,0.0,77,0.00,,---,0.00,VWS V14.01,2013-05-16 02:55:00,
2013-05-15 23:00:00,61.4,54.1,29.70,West,271,0.0,0.0,77,0.00,,---,0.00,VWS V14.01,2013-05-16 03:00:00,
2013-05-15 23:05:00,61.1,54.2,29.70,West,271,0.0,0.0,78,0.00,,---,0.00,VWS V14.01,2013-05-16 03:05:00,
2013-05-15 23:11:00,60.9,54.0,29.71,West,271,0.0,0.0,78,0.00,,---,0.00,VWS V14.01,2013-05-16 03:11:00,
2013-05-15 23:16:00,60.4,54.2,29.71,West,271,0.0,0.0,80,0.00,,---,0.00,VWS V14.01,2013-05-16 03:16:00,
2013-05-15 23:21:00,60.1,53.6,29.71,West,271,0.0,0.0,79,0.00,,---,0.00,VWS V14.01,2013-05-16 03:21:00,
2013-05-15 23:26:00,60.0,53.1,29.71,West,271,0.0,0.0,78,0.00,,---,0.00,VWS V14.01,2013-05-16 03:26:00,
2013-05-15 23:31:00,59.8,53.6,29.71,West,271,0.0,0.0,80,0.00,,---,0.00,VWS V14.01,2013-05-16 03:31:00,
2013-05-15 23:36:00,59.5,53.3,29.71,West,271,0.0,0.0,80,0.00,,---,0.00,VWS V14.01,2013-05-16 03:36:00,
2013-05-15 23:41:00,59.1,52.9,29.71,West,271,0.0,0.0,80,0.00,,---,0.00,VWS V14.01,2013-05-16 03:41:00,
2013-05-15 23:46:00,58.8,53.3,29.71,West,271,0.0,0.0,82,0.00,,---,0.00,VWS V14.01,2013-05-16 03:46:00,
2013-05-15 23:51:00,58.5,53.0,29.70,West,271,0.0,0.0,82,0.00,,---,0.00,VWS V14.01,2013-05-16 03:51:00,
2013-05-15 23:56:00,58.3,53.2,29.70,West,271,0.0,0.0,83,0.00,,---,0.00,VWS V14.01,2013-05-16 03:56:00,